Location: Latina
(41.4670°N, 12.8670°E)
Time: 16:34:01
(UTC+02:00)

ISS - Pass Details

Date: 15 May 2021
Orbit: 417 x 422 km, 51.6° (Epoch: 18 June)

Event Time Altitude Azimuth Distance (km) Brightness Sun altitude
Rises 03:39:46 0° 308° (NW) 2,374 0.1 -19.8°
Reaches altitude 10° 03:41:57 10° 316° (NW) 1,508 -0.9 -19.5°
Maximum altitude 03:45:11 41° 29° (NNE) 624 -2.4 -19.2°
Drops below altitude 10° 03:48:24 10° 101° (E) 1,504 -0.6 -18.8°
Sets 03:50:34 0° 109° (ESE) 2,366 0.4 -18.5°
